Regional Weather Roundup
Issued by NWS Newport/Morehead, NC

Home | Current Version | Previous Version | Text Only | Print | Product List | Glossary On
Versions: 1 2 3 4 5 6 7 8 9 10 11 12 13 14 15 16 17 18 19 20 21 22 23 24 25 26 27 28 29 30 31 32 33 34 35 36 37 38 39 40 41 42 43 44 45 46 47 48 49 50
000
ASUS42 KMHX 251113
RWRMHX
WEATHER ROUNDUP FOR EASTERN NORTH CAROLINA
NATIONAL WEATHER SERVICE NEWPORT/MOREHEAD CITY NC
700 AM EDT SUN JUN 25 2017

NOTE: "FAIR" INDICATES FEW OR NO CLOUDS BELOW 12,000 FEET
WITH NO SIGNIFICANT WEATHER AND/OR OBSTRUCTIONS TO VISIBILITY

NCZ015>017-031-032-045>047-102-103-251200-
NORTH COAST

CITY           SKY/WX    TMP DP  RH WIND       PRES   REMARKS
EDENTON        CLOUDY    75  72  90 CALM      30.03R
ELIZABETH CITY CLOUDY    73  73 100 W7        30.02R
KITTY HAWK     CLOUDY    75  75 100 W5        29.99S
MANTEO         CLOUDY    74  73  96 NW3       30.01R

$$

NCZ045>047-081-094-103-104-251200-
CENTRAL COAST

CITY           SKY/WX    TMP DP  RH WIND       PRES   REMARKS
FRISCO         CLOUDY    77  74  90 SW9       30.02R FOG

$$

NCZ095-097-098-100-101-251200-
SOUTHERN COAST

CITY           SKY/WX    TMP DP  RH WIND       PRES   REMARKS
BEAUFORT       CLOUDY    79  78  97 W9        30.02R
CEDAR ISLAND   NOT AVBL
JACKSONVILLE   CLOUDY    75  75 100 W3        30.02R
PINEY ISLAND   CLOUDY   N/A N/A N/A SW7       30.02R
WILMINGTON     CLOUDY    77  75  93 SW6       30.03S


$$

NCZ011>013-027>030-043-044-078>080-089-090>093-098-251200-
COASTAL PLAIN

CITY           SKY/WX    TMP DP  RH WIND       PRES   REMARKS
AHOSKIE          N/A     69  69  99 CALM      30.03R FOG
CLINTON        CLOUDY    75  75 100 CALM      30.03S FOG
ELIZABETHTOWN  NOT AVBL
GOLDSBORO      CLOUDY    73  73 100 CALM      30.01S
GREENVILLE     CLOUDY    72  72 100 CALM      30.05R
HAVELOCK       CLOUDY    75  74  96 SW5       30.03R
KENANSVILLE    CLOUDY    75  73  94 W3        30.03S FOG
KINSTON        CLOUDY    73  73 100 CALM      30.04S FOG
NEW BERN       CLOUDY    75  75 100 CALM      30.03S
RICHLANDS      CLOUDY    75  74  96 SW5       30.03S
ROCKY MOUNT    CLOUDY    71  71 100 CALM      30.03R
WASHINGTON     CLOUDY   N/A N/A N/A CALM      30.03S
WHITEVILLE     CLOUDY    75  73  94 CALM      30.03R

$$

AMZ130-135-150-152-154-156-158-170-250-252-270-ANZ085-086-088-633-658-670-251200-
MARINE OBSERVATIONS

STATION/POSITION TIME  TEMP    WIND        PRES    WAVE   SWELL
                       AIR SEA DIR/SP/G            HT/PER HT/PER
                 (UTC) (F)     (DEG/KT/KT) (MB)    (FT/S) (FT/S)
CHESAPEAKE LIGHT NOT AVBL
64 E VA BEACH    1050   73 72  280/  8/ 10 1015.9    4/ 7   3/ 7
DUCK             1048   75 60  270/  9/ 12 1015.6
2 E DUCK         NOT AVBL
OREGON INLET     1036   76 78  260/  7/  9 1015.9
13E OREGON INLT  1048      74                N/A     3/ 6   3/ 6
HATTERAS CG      1048   76 78  230/  7/ 11 1016.4
DIAMOND BUOY     1050   79 80  250/ 17/ 21 1016.0    6/ 7   2/ 9
CAPE LOOKOUT     1100   79     240/  6/  9 1016.4
BEAUFORT LAB     1048   79 78  240/  5/  7 1016.1
30 SE NEW RVR IN 1008   80 80  240/ 16/ 21 1016.6
30 SE NEW RVR IN 1043      80                N/A     5/ 6
27 SE WRIGHTSVLE 1008   79 80  220/ 14/ 17 1016.1
5 SE WRIGHTSVLE  1008   80 79  250/  8/ 12 1016.4
225 S CAPE HAT   1050   80 80  220/ 12/ 14 1020.1    4/ 6   3/ 6
41 SE CHARLESTON 1050   81 81  220/ 16/ 21 1016.9    5/ 5   2/ 8

$$



USA.gov is the U.S. government's official web portal to all federal, state and local government web resources and services.